Location: B�rgermoos
(47.6500°N, 9.0667°E)
Time: 14:12:35
(UTC+00:00)

Vanguard 2 Rocket - Pass Details

Date: 12 August 2021
Orbit: 555 x 3324 km, 32.9° (Epoch: 18 September)

Event Time Altitude Azimuth Distance (km) Brightness Sun altitude
Rises 03:43:57 0° 235° (SW) 4,895 - -5.6°
Exits shadow 03:46:23 - 229° (SW) 4,106 9.6 -5.2°
Reaches altitude 10° 03:48:47 10° 220° (SW) 3,356 9.2 -4.9°
Maximum altitude 03:53:59 19° 179° (S) 2,180 8.6 -4.1°
Drops below altitude 10° 03:57:50 10° 135° (SE) 2,373 9.3 -3.5°
Sets 04:00:31 0° 115° (ESE) 3,059 10.2 -3.1°
